Baseball 板


LINE

投手大谷 https://i.imgur.com/5pArmhV.jpg IP H R ER BB SO HR ERA WHIP MAX 6.0 9 5 5 1 6 2 3.30 1.01 101 mph 球種分配: Sweeper 38 (36%) Sinker 29 (27%) 4-Seam Fastball 22 (21%) Cutter 13 (12%) Splitter 4 ( 4%) Curveball 1 ( 1%) Total 107(107-69) 保送下降到只有一次 但被尻了兩支兩分砲 第五局也因為被安打失一分 總計投了6局有五分責失 ERA上升到3.30 打者翔平 https://i.imgur.com/ERAGhlY.jpg ┌──┬─┬─┬─┬──┬─┬─┬─┬─┬─┬───┐ │ AVG│AB│ R│ H│ RBI│2B│3B│HR│BB│ K│ OPS │ ├──┼─┼─┼─┼──┼─┼─┼─┼─┼─┼───┤ │.262│ 4│ 0│ 0│ 0 │ 0│ 0│ 0│ 1│ 2│0.859 │ └──┴─┴─┴─┴──┴─┴─┴─┴─┴─┴───┘ 第一打席: FO 第二打席: K 第三打席: K 第四打席: BB 第五打席: FO 除了選到保送外其餘皆沒表現 又是無安打的一天 上一次投手大谷面對金鶯(5/16)同樣失五分,但天使打擊大爆發 打者翔平同場差點完成完全打擊,救了大谷的勝投,拿下本季第五勝 今天同樣失五分 面對太空人先發Framber Valdez 天使有不少得分機會,打線卻示範各種得不了分的方法 最終天使2:6敗給太空人 投手大谷吞下本季第二敗 5/16後到現在一勝難求 繼續加油啦 = = --



※ 發信站: 批踢踢實業坊(ptt.cc), 來自: 219.68.237.142 (臺灣)
※ 文章網址: https://webptt.com/m.aspx?n=bbs/Baseball/M.1685760528.A.9D8.html ※ 編輯: Axwell (219.68.237.142 臺灣), 06/03/2023 10:49:11
1F:→ KWBilly: 涼 06/03 10:49
2F:推 Willie01: 快 06/03 10:49
3F:推 nanamiiwill: 好爛 06/03 10:49
4F:推 kikiyaxx: 加油啦QQ 06/03 10:49
5F:推 mosap: 今天不笑了 加油啦 06/03 10:49
6F:推 ParkChoa: 摳連 06/03 10:49
7F:→ pengjoker: 又爛又爛的一天 06/03 10:49
8F:推 bnbn0012300: 涼平QQ 06/03 10:49
9F:推 ggbi4zzz: 頭大二刀流,兩頭空 06/03 10:49
10F:推 ljk476820: 蒸的不行了 翔平 06/03 10:49
11F:→ galleon2000: 笑不出來了 06/03 10:50
12F:推 polanco: 真慘 06/03 10:50
13F:推 pc152: 兩邊都爛的一天 06/03 10:50
14F:推 Getbackers: 誰說不用休息的? 06/03 10:50
15F:推 aya28666888: 內文 06/03 10:50
16F:推 neko198927: 不休一下嗎QQ 06/03 10:50
17F:推 safyrose: 死不休 06/03 10:51
18F:推 ss3752: 今天大谷跟翔平都不行 06/03 10:51
19F:推 dick929: 投球的是翔平,打擊的是大谷=烙賽 06/03 10:51
20F:推 paul31788: 該休息了 06/03 10:51
21F:→ cs0350679: 笑死 加油啦! 06/03 10:51
22F:推 mikilin23: 還好啦..還是比去年同期好 06/03 10:51
23F:推 mirror0103: 爛 06/03 10:51
24F:→ remsuki: QQ 06/03 10:51
25F:→ mikilin23: 繼續努力 06/03 10:51
26F:→ FantasyChopi: 笑不出來了QQ… 06/03 10:51
27F:推 lepidoptera: 大谷跟翔平同一天烙賽 06/03 10:51
28F:推 WoYaoDa: 笑著笑著就哭了 06/03 10:51
29F:推 chihcsck: MVP越來越遠了 06/03 10:51
30F:→ HisVol: 雙刀流變雙刀涼 06/03 10:51
31F:推 a1230215: 哭哭 06/03 10:52
32F:推 a2350221: 大谷加油啊! 06/03 10:52
33F:推 gc1319: 好涼 06/03 10:52
34F:推 Coffeeoftea: 跟大哥一起休算了:( 06/03 10:52
35F:推 zaza1128: 休息一下吧 06/03 10:53
36F:推 wowohqqq: 今天天使整隊真的示範一百種得不了方法QQ 幸好沒被完封 06/03 10:53
37F:→ certifi: 笑死 高中生水準 06/03 10:53
38F:推 RoastCorn: 慣老闆再不給休啊 06/03 10:53
39F:推 leo79415: 越來越爛 06/03 10:53
40F:推 saffron27: 涼 06/03 10:53
41F:→ terry1043: 打出原形 06/03 10:53
42F:推 paul31788: 去年是越來越好 今年是越來越爛 要確定欸 06/03 10:53
43F:推 yokomata: 該休一次了 06/03 10:54
44F:推 laking: 還有機會啦 06/03 10:54
45F:推 myeunji: 各隊經理:這場看完,大合約可以準備收回了 06/03 10:54
46F:推 henry1915: 投打都超涼 06/03 10:54
47F:→ payneblue: 今天伸卡配球明顯上升 06/03 10:55
48F:→ justloadfun: 運氣蠻好的 被打了9支安打只掉5分 06/03 10:55
49F:推 twtpcsilence: 大谷有投那麼多伸卡?! 感覺跟四縫位移沒差很多啊 06/03 10:55
50F:推 meng99: 休一天吧 06/03 10:55
51F:→ WasJohnWall: 涼 06/03 10:55
52F:推 william80730: 還是那句話 指叉不找回來就是會被打 06/03 10:55
53F:推 a7696405: 球種是不是太多了,感覺搞死自己 06/03 10:55
54F:推 avcddd: 笑死 不如睡覺 war還比較高 06/03 10:55
55F:推 climax1309: 睡不夠 06/03 10:56
56F:→ Axwell: 很多指叉被歸類在伸卡 06/03 10:56
57F:推 HondaFIT: 該睡覺了 06/03 10:56
58F:→ Axwell: 檢測球種的儀器有時候判斷會有誤 06/03 10:57
59F:→ william80730: 有4隻內安啊 運氣很差才對 06/03 10:57
60F:→ graphict: 投打全面笑死 06/03 10:57
61F:推 xxguaxx: 該休了吧QQ 06/03 10:57
62F:推 stanley86300: 好涼 06/03 10:57
63F:→ payneblue: 上一場先發投 也是運氣差了點 06/03 10:57
64F:→ Minihil: 大谷炸裂 06/03 10:57
65F:推 JazMaHoJo: 自己配球 控球會漂 捕手接爛 守備又搞 06/03 10:58
66F:推 wwey2000j: 太鼓達人又不是運動家那種鳥隊 本來就不好打 06/03 10:58
67F:推 abc5555990: 可以考慮放棄二刀流了 專心投手才有機會修好控球 06/03 10:58
68F:推 chenchen0611: 天使守備跟太鼓比起來不在同個層次 06/03 10:59
69F:→ visviva: 我難過...QQ 06/03 10:59
70F:→ chenchen0611: 加油吧 季賽還很長 06/03 10:59
71F:推 twtpcsilence: 了解 感謝Axwell大說明 06/03 10:59
72F:→ abc5555990: 改練變速取代指叉吧 MLB很多大投手都是變速達人 06/03 11:00
73F:推 JimK0511: 超鳥 06/03 11:00
74F:推 myeunji: 我覺得專心打者較好,投手能力開始走下坡了 06/03 11:00
75F:推 genesys570: 其實是太空人太強了 06/03 11:00
76F:推 hexokinase: 兩把刀都沒有的一天 06/03 11:00
77F:→ abc5555990: 變化軌跡跟Sweeper相反 搭配起來比指叉好 06/03 11:01
78F:推 CE15: 今天投球部分運氣也不太好就是了.. 06/03 11:01
79F:推 mstar: 問就是 WBC 後遺症 06/03 11:01
80F:推 KazumiLin: 今天大谷核炸 06/03 11:01
81F:→ judtbyj: 加油!! 06/03 11:01
82F:→ mirrorlee: 投球能力沒甚麼問題 一開始那兩分單純太空人優蛋打得好 06/03 11:03
83F:推 rickcoo: 核炸 06/03 11:03
84F:推 O10lOl01O: 太谷涼平 06/03 11:03
85F:推 loopdiuretic: 慘 06/03 11:03
86F:推 lhi0417: 哭臉男,笑死 06/03 11:03
87F:→ mirrorlee: 主要是配球模式太單調 沒法根據打者馬上做出調整 才會 06/03 11:03
88F:→ mirrorlee: 沒注意到8棒刻意站遠等內角滑球 搭配一個好捕手配球就 06/03 11:04
89F:→ chan324: 太空人陣容早就沒之前強了 06/03 11:05
90F:→ mirrorlee: 解決了 但問題目前天使沒有值得把配球權交出去的捕手 06/03 11:05
91F:推 hsgreent: 和Valdez有控球力的差別 同樣6局相比 谷107:84 V 另外 06/03 11:06
92F:→ hsgreent: 打線差距 06/03 11:06
93F:推 sillyxsilly: 哀 跟藤浪差不了 06/03 11:06
94F:推 WasJohnWall: 對大谷來說,全壘打王跟漢克阿倫都比賽揚容易,21年 06/03 11:06
95F:→ WasJohnWall: 後面體力沒掉的話都就有機會了 06/03 11:06
96F:→ RodrigueZ810: 我還覺得可能是兩年前全壘打大賽的後遺症= = 06/03 11:06
97F:→ WasJohnWall: 賽揚真的要專心才行…… 06/03 11:07
98F:推 chan324: 好壞球太明顯 06/03 11:08
99F:推 cplzgr: 這一個月投的很不順,都會被抓到機會,雖然整體還不到很崩 06/03 11:08
100F:→ cplzgr: 的狀態.. 06/03 11:08
101F:推 NowLoading: 拜託讓他休息 06/03 11:08
102F:→ mirrorlee: 今年太空人打線很差的 聯盟後段班 天使打線好多了 主要 06/03 11:09
103F:推 LCH41777: 涼了QQ 06/03 11:09
104F:→ mirrorlee: 還是太空人投手太強 傷了一狗票還是聯盟前段班 06/03 11:10
105F:→ cplzgr: 對,還有今天太空人打者都站比較外側沒錯,都在瞄準橫滑 06/03 11:10
106F:→ cplzgr: 的樣子 06/03 11:10
107F:推 samkobea1090: 今年回日本 明年來中職了 06/03 11:10
108F:→ cplzgr: 大谷有幾球內角其實是會丟到打者的,但都站外側才.. 06/03 11:11
109F:推 YoGlolz: 打擊涼了 06/03 11:11
110F:推 chan324: 太空人打線 阿土伯年年退化 06/03 11:11
111F:推 a40558473: 笑死 翔平又睡 06/03 11:11
112F:→ WasJohnWall: 不過大谷投球都拉尾盤,打擊反而是後面沒力 06/03 11:12
113F:→ cplzgr: 今天大谷打擊都被卡特薛了@@ 06/03 11:12
114F:推 yankees733: 今天兩個一起爛 06/03 11:16
115F:推 Cliffx: 看破手腳 06/03 11:18
116F:推 MrCool5566: 慘死QQ 06/03 11:19
117F:→ LiebeLion: 累了 06/03 11:19
118F:推 asdfg5435: 完蛋 這季又沒10勝了 06/03 11:20
119F:推 smalldra: 大谷涼 祥平涼 06/03 11:21
120F:推 revise: 笑死 再不休啊 06/03 11:21
121F:→ muxmux: 大谷是怎樣拿到MVP的? 06/03 11:21
122F:推 qazzaq3977: 涼了 06/03 11:22
123F:推 JavaBass: 台灣記者神力 06/03 11:22
124F:推 yuyun0724: 該休一下了 06/03 11:23
125F:推 Axy8: 真的好慘烈 06/03 11:24
126F:推 myeunji: 扯記者影響的就真的有點硬扯了 06/03 11:24
127F:推 carwho: 笑死 06/03 11:24
128F:推 VoiDoll99: 太空人強 06/03 11:24
129F:推 gwawa0617: MVP! 06/03 11:25
130F:→ VoiDoll99: valdez真的很穩 06/03 11:25
131F:推 ger1871: 涼爆 06/03 11:26
132F:推 maxint: 無安打比賽 06/03 11:27
133F:推 VoiDoll99: 阿土伯目前還是蠻強的,只是今天這場打的爛 06/03 11:28
134F:推 abc5555990: 為什練好的大曲不太敢用了 06/03 11:31
135F:推 Kowdan: 兩邊都真的不大行啊… 06/03 11:31
136F:推 f9968106: 嗚嗚 06/03 11:32
137F:→ MaYawCiru: 兩人都爛 06/03 11:36
138F:推 joewang85: 該休了 06/03 11:36
139F:推 ETJohn: 今天是又爛又爛的一天,哭啊 06/03 11:37
140F:推 Krishna: 超慘 雙爛 今年MVP沒有懸念了 06/03 11:38
141F:推 phix: 涼了 跌一千萬 06/03 11:39
142F:推 Eloye: 大檸檬真的不好混,感覺今年尖谷涼平次數比往常多 06/03 11:40
143F:推 silentsky555: 下一次先發跳過吧 已經兩個月沒好好休息 06/03 11:40
144F:推 kalousu5685: 笑死 超涼的一天 06/03 11:40
145F:推 pantakill: 底谷躺平 06/03 11:40
146F:推 edhuang: 今天很不行 總之加油 06/03 11:42
147F:推 ilks2334: 這樣還不休!? 06/03 11:42
148F:推 gmailsucks: 涼涼 06/03 11:46
149F:推 hihi29: 笑死 06/03 11:46
150F:推 westinsane: 該休了 06/03 11:48
151F:→ Adlem: 涼平在傷害打線 06/03 11:50
152F:推 kauw: 說好我兩個大谷一個有出息呢? 06/03 11:50
153F:噓 keler: 被記者帶賽啦 06/03 11:51
154F:→ AhCheng: 壞了 06/03 11:51
155F:→ kauw: 連新球種控球整個走鍾,勝投一直停滯不前了跟洋基cole比爛 06/03 11:52
156F:→ kauw: ?目前誰才是發球機? 06/03 11:52
157F:推 polanco: 樓上可以改寄生今天太空人隊的先發啦 不要再講Cole了 06/03 11:54
158F:推 kauw: 球種那麼多幹嘛控球才是王道 06/03 11:56
159F:推 Jerry7766: 涼… 06/03 11:56
160F:推 kimicino: 加油 06/03 11:59
161F:→ ericinttu: 全隊涼平 06/03 12:02
162F:推 jay60307: 雖然今天涼但還是天使五冠王... 06/03 12:02
163F:推 charlie50704: 0刀流77777 06/03 12:02
164F:推 a34567: 退休吧 很慘 06/03 12:05
165F:→ qrrd: 還好沒買hami video 改支持法官好了 06/03 12:06
166F:推 www456789789: 涼 06/03 12:07
167F:推 tent24: 笑死 06/03 12:07
168F:推 charmingpink: 大谷跟翔平都不行了 06/03 12:08
169F:推 lin821: 高中生水準 06/03 12:08
170F:推 iWatch2: 涼涼 06/03 12:09
171F:推 AKLnokizuna: 不及格啊 大谷&翔平 06/03 12:11
172F:推 ccf0423: 挨兩轟投手war沒刷到,慘 06/03 12:14
173F:→ killua0209: 今天大谷只讓太空人打者揮空5次,這對三振型投手不太 06/03 12:15
174F:→ killua0209: 正常 06/03 12:15
175F:推 northlight: 大谷/翔平加油 高低潮都會有的 06/03 12:18
176F:推 splong: 是不是被TVBS記者嚇到了? 要記得去收驚啊 06/03 12:18
177F:推 flicker36: 該讓涼平休了 教練 06/03 12:19
178F:推 JKjohnwick: 被記者嚇到了吧 06/03 12:20
179F:推 myeunji: 實力不足就只好讓別人幫他找各種理由了 06/03 12:24
180F:推 justdoit: 今年被炸烈率好高 06/03 12:26
181F:推 cmelo1515: https://i.imgur.com/PAqwdvv.jpg 06/03 12:28
182F:推 nowitzki0207: 根本過譽,要回日本了吧 06/03 12:31
183F:推 killua0209: 某位假谷粉終於露出真面目了 06/03 12:32
184F:推 ccl007: 一流球員會整理自己低潮時有那些因素 176就在球季中從來 06/03 12:35
185F:→ ccl007: 不看自己的新聞評論報導等 06/03 12:35
186F:噓 r30385: 過譽 06/03 12:38
187F:推 ycsheaven: 好慘…兩個都不及格 要被笑死了 06/03 12:38
188F:→ taiwanlaws: 涼 06/03 12:38
189F:推 ctes940008: 丸子 06/03 12:38
190F:推 Virness: 大谷涼亭 06/03 12:45
191F:推 angel991213: 還是相信大谷的調整能力 繼續加油啦~ 06/03 12:49
192F:推 kissmy0926: 大谷翔平都爛 今天慘 06/03 12:55
193F:推 sustto: 涼 06/03 12:56
194F:推 s860382: QQ 06/03 12:57
195F:→ hydra7: 好爛…笑死 06/03 13:03
196F:推 kexfj: 又爛又爛的一天 06/03 13:09
197F:推 kenco: cole目前好一點 06/03 13:12
198F:→ freeview: 高中生畢業季到了 先壞一波 06/03 13:17
199F:推 tupacshkur: 笑死! 爆炸欸...好慘喔這ERA,不及格 06/03 13:35
200F:推 befly10015: 真的好慘 也沒人能幫他調整 自己摸索也摸不出個啥 06/03 13:39
201F:推 jahen: 被某記者帶賽了 06/03 13:41
202F:噓 monkeyhurler: 爽啊 06/03 13:48
203F:噓 liu1030: 恭喜法官MVP 06/03 13:53
204F:推 nowucme: 問就是休 06/03 13:55
205F:推 its0130: 二刀涼 06/03 13:56
206F:推 vltw5v: 哭 變0刀流了 06/03 14:17
207F:推 waitress: 不休息一下嗎! 06/03 14:21
208F:→ ZIQQ001: 涼平 06/03 14:25
209F:推 foxey: 大谷和翔平成績對調一下就舒服多了 06/03 14:32
210F:→ DaDaDaLa: mvp走遠了嗎 06/03 14:50
211F:推 ailio: 沒有笑死也沒有又強又爛了,只有爛QQ 06/03 15:26
212F:推 qaz0314: 涼平 06/03 16:07
213F:推 jasop: 今天不能笑死了 06/03 16:19
214F:推 ruka660101: 加油 06/03 16:20
215F:→ ollaynn: 今天是高中生 06/03 16:32
216F:推 jiaxie: 笑死被刺傷了 06/03 16:39
217F:推 yaguara: 今日炸裂。。投手的部分 06/03 16:57
218F:推 jympin: 感覺每年都同樣劇本啊 無雙開完 就爛一陣子 06/03 17:12
219F:推 kiss7938: 爛到不忍噓 06/03 17:23
220F:→ dcdc: 指叉比例感覺太少了啊~ 06/03 20:32
221F:→ tsujishiori: 大谷跟翔平不合嗎?為何翔平都是挑大谷先發的時候烙 06/03 21:27
222F:→ tsujishiori: 賽 06/03 21:27
223F:推 chargee: 早就說不要再刷了!今年就證明二刀流不行吧! 06/03 23:19







like.gif 您可能會有興趣的文章
icon.png[問題/行為] 貓晚上進房間會不會有憋尿問題
icon.pngRe: [閒聊] 選了錯誤的女孩成為魔法少女 XDDDDDDDDDD
icon.png[正妹] 瑞典 一張
icon.png[心得] EMS高領長版毛衣.墨小樓MC1002
icon.png[分享] 丹龍隔熱紙GE55+33+22
icon.png[問題] 清洗洗衣機
icon.png[尋物] 窗台下的空間
icon.png[閒聊] 双極の女神1 木魔爵
icon.png[售車] 新竹 1997 march 1297cc 白色 四門
icon.png[討論] 能從照片感受到攝影者心情嗎
icon.png[狂賀] 賀賀賀賀 賀!島村卯月!總選舉NO.1
icon.png[難過] 羨慕白皮膚的女生
icon.png閱讀文章
icon.png[黑特]
icon.png[問題] SBK S1安裝於安全帽位置
icon.png[分享] 舊woo100絕版開箱!!
icon.pngRe: [無言] 關於小包衛生紙
icon.png[開箱] E5-2683V3 RX480Strix 快睿C1 簡單測試
icon.png[心得] 蒼の海賊龍 地獄 執行者16PT
icon.png[售車] 1999年Virage iO 1.8EXi
icon.png[心得] 挑戰33 LV10 獅子座pt solo
icon.png[閒聊] 手把手教你不被桶之新手主購教學
icon.png[分享] Civic Type R 量產版官方照無預警流出
icon.png[售車] Golf 4 2.0 銀色 自排
icon.png[出售] Graco提籃汽座(有底座)2000元誠可議
icon.png[問題] 請問補牙材質掉了還能再補嗎?(台中半年內
icon.png[問題] 44th 單曲 生寫竟然都給重複的啊啊!
icon.png[心得] 華南紅卡/icash 核卡
icon.png[問題] 拔牙矯正這樣正常嗎
icon.png[贈送] 老莫高業 初業 102年版
icon.png[情報] 三大行動支付 本季掀戰火
icon.png[寶寶] 博客來Amos水蠟筆5/1特價五折
icon.pngRe: [心得] 新鮮人一些面試分享
icon.png[心得] 蒼の海賊龍 地獄 麒麟25PT
icon.pngRe: [閒聊] (君の名は。雷慎入) 君名二創漫畫翻譯
icon.pngRe: [閒聊] OGN中場影片:失蹤人口局 (英文字幕)
icon.png[問題] 台灣大哥大4G訊號差
icon.png[出售] [全國]全新千尋侘草LED燈, 水草

請輸入看板名稱,例如:Soft_Job站內搜尋

TOP